Regional Weather Roundup
Issued by NWS

Home | Current Version | Previous Version | Graphics & Text | Print | Product List | Glossary On
Versions: 1 2 3 4 5 6 7 8 9 10 11 12 13 14 15 16 17 18 19 20 21 22 23 24 25 26 27 28 29 30 31 32 33 34 35 36 37 38 39 40 41 42 43 44 45 46 47 48 49 50
000
ASUS43 KMPX 191710
RWRMN
WEATHER ROUNDUP FOR MINNESOTA
NATIONAL WEATHER SERVICE TWIN CITIES/CHANHASSEN MN
1200 PM CDT SAT APR 19 2014


NOTE: "FAIR" INDICATES FEW OR NO CLOUDS BELOW 12,000 FEET WITH NO
SIGNIFICANT WEATHER AND/OR OBSTRUCTIONS TO VISIBILITY. N/A MEANS
CURRENT SKY AND/OR WEATHER CONDITIONS ARE NOT AVAILABLE.

MNZ060>063-068>070-191800-
   Twin Cities Metro

CITY           SKY/WX    TMP DP  RH WIND       PRES   REMARKS
TWIN CITIES    CLOUDY    53  37  54 S15G22    30.06F
ST PAUL        CLOUDY    54  35  48 SE16      30.07F
CRYSTAL        CLOUDY    53  35  50 S17G24    30.04F
BLAINE         CLOUDY    54  37  54 S21G29    30.04F
EDEN PRAIRIE   CLOUDY    56  37  49 S14G22    30.04F
LAKEVILLE      CLOUDY    52  37  58 S16G25    30.06F
SOUTH ST PAUL  CLOUDY    56  36  45 S15G23    30.07F
LAKE ELMO      CLOUDY    54  34  47 S18       30.09F
$$
MNZ001>005-007-008-013>017-022>024-027-028-191800-
   Northwest Minnesota

CITY           SKY/WX    TMP DP  RH WIND       PRES   REMARKS
BEMIDJI        PTSUNNY   55  41  59 SW21G28   29.85S HAZE
HALLOCK        CLOUDY    55  39  54 SW22      29.75S
ROSEAU         SUNNY     57  45  62 SW17G25   29.75R
WARROAD        MOSUNNY   54  45  71 S21G26    29.75S
THIEF RVR FALL SUNNY     55  41  58 SW20      29.80F
CROOKSTON      SUNNY     61  39  44 SW20G25   29.83R
FOSSTON        MOSUNNY   57  39  51 SW17G26   29.84S
DETROIT LAKES  MOSUNNY   57  43  58 SW9       29.90R
MOORHEAD       MOSUNNY   57  39  51 SW13      29.89R
PARK RAPIDS    PTSUNNY   55  43  63 S17       29.88S
$$
MNZ006-009>011-018-025>026-191800-
   North Central Minnesota

CITY           SKY/WX    TMP DP  RH WIND       PRES   REMARKS
BAUDETTE       PTSUNNY   48  39  71 S17G31    29.79F
FLAG ISLAND    CLOUDY    37  34  87 SE18      29.75F
INTL FALLS     CLOUDY    39  31  72 S10G22    29.89F
WASKISH        CLOUDY    52  39  62 S12G21    29.83F
BIG FORK       CLOUDY    45  36  70 S13G26    29.90F
LONGVILLE      CLOUDY    52  39  62 S12G23    29.91S
GRAND RAPIDS   CLOUDY    45  34  65 S22G31    29.94S
CRANE LAKE     DRIZZLE   36  34  93 SE5G18    29.98F
ORR            PTSUNNY   37  28  70 SE15G25   29.92F
COOK           CLOUDY    37  30  75 SE13G23   29.97F
$$
MNZ012-019>021-037-191800-
   Northeast Minnesota

CITY           SKY/WX    TMP DP  RH WIND       PRES   REMARKS
DULUTH         PTSUNNY   37  29  72 E20       30.05S
ELY            CLOUDY    36  30  80 SE20G28   30.01F
HIBBING        CLOUDY    40  33  76 SE14      29.98F
EVELETH        CLOUDY    36  32  87 SE12G17   30.02S
DULUTH HARBOR  CLOUDY    34  32  93 NE18      30.09F WCI  23
TWO HARBORS    CLOUDY    34  28  80 E13G24    30.08F WCI  25
SILVER BAY     PTSUNNY   30  30 100 NE12      30.10F WCI  21
GRAND MARAIS     N/A     32  30  92 E15G24    30.21F WCI  22
G MARAIS ARPRT MIX PCPN  28  25  86 E14G24    30.14F WCI  17
$$
MNZ029>031-032-039>041-046>048-054>057-064-191800-
   West Central Minnesota

CITY           SKY/WX    TMP DP  RH WIND       PRES   REMARKS
FERGUS FALLS   PTSUNNY   61  37  41 W13       29.89R
WHEATON        PTSUNNY   63  43  48 W12       29.96R
MORRIS         CLOUDY    61  46  59 W12       29.93R
ALEXANDRIA     CLOUDY    53  44  71 S17       29.94R
ELBOW LAKE     FAIR      58  43  57 W13       29.92R
WADENA         PTSUNNY   54  43  66 SW18G25   29.90S
GLENWOOD       CLOUDY    54  45  71 S16       29.95R
APPLETON       CLOUDY    61  45  55 W13       29.94S
BENSON         CLOUDY    61  46  59 SW13      29.95R
ORTONVILLE     CLOUDY    61  37  41 NW10      29.95S
MADISON        CLOUDY    61  45  55 W12       29.95R
WILLMAR        LGT RAIN  55  45  67 S5        29.98R
$$
MNZ033>034-036-042>043-049>051-058-059-191800-
   Central Minnesota

CITY           SKY/WX    TMP DP  RH WIND       PRES   REMARKS
ST CLOUD       PTSUNNY   50  37  61 S18       29.99F
SAUK CENTRE    FAIR      51  42  70 S15G21    29.96R
PAYNESVILLE    PTSUNNY   51  41  69 S9G17     29.98R
AITKIN         CLOUDY    50  34  53 S17G30    29.95S
PINE RIVER     CLOUDY    52  43  71 S20G26    29.95S
BRAINERD       CLOUDY    54  37  52 S22G31    29.95F
STAPLES        CLOUDY    52  41  66 S22       29.92S
LONG PRAIRIE   FAIR      50  43  76 S17G25    29.95S
LITTLE FALLS   CLOUDY    50  37  62 S12G22    29.97S
LITCHFIELD     LGT RAIN  55  43  62 S9G18     29.98F
BUFFALO        PTSUNNY   54  38  55 S14G22    30.02F
MAPLE LAKE     PTSUNNY   52  41  65 S16       30.00F
$$
MNZ037-044-045-052-053-191800-
   East Central Minnesota

CITY           SKY/WX    TMP DP  RH WIND       PRES   REMARKS
PRINCETON      MOSUNNY   50  36  57 SE17      30.01F
MORA           MOSUNNY   45  32  61 S13       30.04F
CAMBRIDGE      CLOUDY    48  34  57 S15G22    30.00F
RUSH CITY      CLOUDY    45  31  57 S13       30.03F
MOOSE LAKE     PTSUNNY   45  28  53 S15G25    30.01S
HINCKLEY       PTSUNNY   45  32  61 S13G18    30.03F
CLOQUET        PTSUNNY   45  27  49 SE14G21   30.03F
MCGREGOR       CLOUDY    46  34  61 S15       29.99F
$$
MNZ071>073-080-081-089-090-097-098-191800-
   Southwest Minnesota

CITY           SKY/WX    TMP DP  RH WIND       PRES   REMARKS
MONTEVIDEO     CLOUDY    59  48  67 SW10      29.96R
GRANITE FALLS  CLOUDY    58  46  65 S8        29.98S
CANBY          CLOUDY    60  45  57 W9        29.97R
MARSHALL       CLOUDY    64  45  48 SW22G28   29.96S
REDWOOD FALLS  PTSUNNY   68  46  45 SW28G35   29.96F
OLIVIA         PTSUNNY   61  46  59 SW18G25   29.96S
PIPESTONE      MOSUNNY   64  43  45 W16G22    29.96F
WINDOM         CLOUDY    66  45  45 SW24G32   29.99R
WORTHINGTON    SUNNY     66  43  42 SW25      30.01S
JACKSON        PTSUNNY   68  39  34 SW25G33   30.00F
TRACY          PTSUNNY   65  46  49 SW24G32   29.97R
SLAYTON        MOSUNNY   65  44  46 SW23G30   29.98S
$$
MNZ065>067-074>077-082>085-091>093-191800-
   South Central Minnesota

CITY           SKY/WX    TMP DP  RH WIND       PRES   REMARKS
MANKATO        MOSUNNY   61  41  48 S25G36    30.03F
NEW ULM        MOSUNNY   64  43  45 S22G29    29.99F
ST JAMES       PTSUNNY   66  39  37 S23       30.01F
FAIRMONT       SUNNY     66  39  37 S28G38    30.02F
GLENCOE        PTSUNNY   60  40  48 S14G26    30.01F
FARIBAULT      MOSUNNY   61  36  39 S21G30    30.08F
OWATONNA       MOSUNNY   57  39  51 S23G29    30.08S
WASECA         PTSUNNY   59  43  55 S21G28    30.08S
ALBERT LEA     SUNNY     59  39  47 S23       30.08F
$$
MNZ078>079-086>088-094>096-191800-
   Southeast Minnesota

CITY           SKY/WX    TMP DP  RH WIND       PRES   REMARKS
ROCHESTER      MOSUNNY   56  37  49 S25G36    30.12F
RED WING       MOSUNNY   57  34  41 S15G23    30.12F
STANTON        PTSUNNY   57  38  49 S22G31    30.07F
DODGE CENTER   MOSUNNY   59  37  44 S29G35    30.10F
WINONA         MOSUNNY   59  32  36 SE14G22   30.17F
AUSTIN         MOSUNNY   57  36  44 S16G25    30.11F
PRESTON        MOSUNNY   56  33  41 S23       30.16F
$$
ABBREVIATIONS USED IN REMARKS
   TC - TEMPERATURES IN CELSIUS
  WCI - WIND CHILL INDEX
   HX - HEAT INDEX
  VSB - VISIBILITY
$$


USA.gov is the U.S. government's official web portal to all federal, state and local government web resources and services.